Location: Lombard
(41.8800°N, 88.0080°W)
Time: 07:41:39
(UTC-06:00)

Courier 1B - Visible Passes

Search period start: 05 March 2024 00:00
Search period end: 15 March 2024 01:00
Orbit: 962 x 1209 km, 28.3° (Epoch: 04 March)

Date Brightness Start Highest point End Pass type
(mag) Time Alt. Az. Time Alt. Az. Time Alt. Az.
05 Mar 9.5 18:37:38 10° S 18:40:22 12° SSE 18:43:03 10° SE visible
05 Mar 9.3 20:28:07 10° SW 20:31:09 19° SSW 20:31:09 19° SSW visible
06 Mar 9.0 19:34:39 10° SSW 19:39:49 21° SSE 19:40:54 20° SSE visible
06 Mar 10.0 21:27:21 10° SW 21:27:48 12° SW 21:27:48 12° SW visible
07 Mar 9.3 18:41:22 10° SSW 18:46:10 18° SSE 18:50:36 11° ESE visible
07 Mar 9.1 20:33:35 10° SW 20:37:30 23° SSW 20:37:30 23° SSW visible
08 Mar 8.9 19:39:53 10° SW 19:45:42 25° S 19:47:10 24° SSE visible
08 Mar 9.9 21:33:19 10° WSW 21:34:04 13° SW 21:34:04 13° SW visible
09 Mar 9.1 18:46:16 10° SW 18:52:01 24° S 18:56:49 12° ESE visible
09 Mar 9.1 20:39:22 10° WSW 20:43:42 25° SSW 20:43:42 25° SSW visible
10 Mar 8.8 20:45:30 10° SW 20:51:36 28° S 20:53:19 25° SSE visible
10 Mar 10.0 22:39:34 10° WSW 22:40:13 12° WSW 22:40:13 12° WSW visible
11 Mar 9.0 19:51:42 10° SW 19:57:53 27° S 20:02:56 13° SE visible
11 Mar 9.2 21:45:26 10° WSW 21:49:49 23° SSW 21:49:49 23° SSW visible
12 Mar 8.9 20:51:24 10° WSW 20:57:29 27° S 20:59:25 24° SSE visible
12 Mar 10.1 22:46:17 10° WSW 22:46:19 10° WSW 22:46:19 10° WSW visible
13 Mar 9.1 19:57:27 10° WSW 20:03:46 28° S 20:09:00 13° SE visible
13 Mar 9.4 21:51:50 10° WSW 21:55:54 20° SSW 21:55:54 20° SSW visible
14 Mar 9.1 20:57:34 10° WSW 21:03:20 24° SSW 21:05:30 21° S visible
